Location: Bailleul
(50.3375°N, 2.8513°E)
Time: 20:12:08
(UTC+00:00)

NOSS 3-1 (C) - Pass Details

Date: 19 April 2021
Orbit: 732 x 1476 km, 63.4° (Epoch: 18 April)

Event Time Altitude Azimuth Distance (km) Brightness Sun altitude
Rises 21:31:01 0° 315° (NW) 3,821 8.1 -21.4°
Reaches altitude 10° 21:33:29 10° 318° (NW) 2,964 7.2 -21.6°
Maximum altitude 21:40:42 74° 43° (NE) 1,298 4.1 -22.2°
Enters shadow 21:44:44 34° 122° (ESE) 2,038 4.7 -22.6°
